STARLINK-32355, 61634

Orbit data source: Space-Track

STARLINK-32355, 61634 is a payload satellite owned by SpaceX/Seattle (US) in LEO that was launched on Wed, 23 Oct 2024 UTC via an FALCON 9 launch vehicle from the Air Force Eastern Test Range (AFETR). Payload-class satellites include a variety of spacecraft equipped with specific instruments for various scientific and technological missions. These include communications satellites like Starlink; space stations such as the ISS; scientific satellites like the Hubble; Earth observation satellites from companies like Planet Labs, Umbra, and HawkEye 360; GPS; miniature CubeSats for education and research; and military/defense satellites.

Loading next visibility...
Identifier
61634, 2024-191P
Orbit
LEO
Country
Flag of USUS
Related business
Manufacturer
SpaceX/Seattle
Mission
Operational Commercial Communications
Bus & Motor
STARLINK V2M, Unknown motor
Mass
730 kg wet, ~700 kg dry
Launch date (UTC)
2024-10-23 (10 months ago)
Launch vehicle
FALCON 9
Launch site
Air Force Eastern Test Range (AFETR)
Object type
Payload
Rocket body
Debris
Shape & HBR
Box + 2 Pan, 14.5 m
Radar Cross Section
36.964 m², Large (>1 m²)

Expand to show TLE details & history
Last TLE update: 10 hours ago

TLE from 10 hours ago
0 STARLINK-32355
1 61634U 24191P   25243.16026979  .00002177  00000-0  88606-4 0  9992
2 61634  43.0009 154.3011 0000763 277.5685  82.5080 15.27580618 48355
Epoch: 2025-08-31T03:50Z
TLE epoch observation values (Epoch: 2025-08-31T03:50:47.309Z)
Latitude
-0.00003°
Longitude
117.01974°
Altitude
482.755 km
Speed
7.626 km/s
True Right ascension
10h 17m 12s
True Declination
0° 00' 00"
Sunlit
Object was in daylight at epoch
Visualization orbit readout
Latitude
Unknown
Longitude
Unknown
Altitude
Unknown
Speed
Unknown
Apparent Right ascension
Unknown
Apparent Declination
Unknown
Sunlit
N/A
Visualization observer readout
Local Sidereal Time
05:52:26
Azimuth
Unknown
Elevation
Unknown
Doppler factor
Unknown
Orbital elements
Apogee altitude
485.516 km
Perigee altitude
484.469 km
Semi-major axis
6,863.129 km
Eccentricity
0.00008
Inclination
43.0009°
RAAN
154.3011°
Arg. of periapsis
277.5685°
True anomaly
82.51667°
Mean anomaly
82.508°
Eccentric anomaly
82.51233°
Mean motion
3.81733 °/min
Orbital period
94.31 mins
BSTAR
0.000088606
Loading maneuver chart data...
Computing Atmospheric mass density...
Loading historical data...
Loading historical data...
Loading historical data...
Loading historical data...
Loading historical data...
Loading historical data...
Loading historical data...

Documentation

Showing up to 5 results
|